When you browse on this site, cookies collect data to enhance your experience and personalize the content and advertising you see.
Visit our Privacy Policy to learn more. By continuing to use the site, you agree to this use of cookies and data.
  • în România
  • Lista ţărilor
  • Pe 7 zile
  • Temperatura apei
  • Hartă satelitară
  • Meteo pe hartă
  • Widget-uri
  • user-avatar
    Intrare

    Meteo pe oră la Sceaux

    Astăzi, 16 Iunie, Duminică

    Timp Temperatura Precipitaţii Vânt Presiune Umiditate
    00:00 +13°C° 0 mm 4 m/s 755 mmHg 82%
    01:00 +13°C° 0 mm 3 m/s 755 mmHg 84%
    02:00 +12°C° 0 mm 3 m/s 755 mmHg 85%
    03:00 +12°C° 0 mm 3 m/s 755 mmHg 87%
    04:00 +12°C° 0 mm 3 m/s 756 mmHg 86%
    05:00 +13°C° 0 mm 3 m/s 756 mmHg 86%
    06:00 +13°C° 0 mm 3 m/s 756 mmHg 85%
    07:00 +14°C° 0 mm 3 m/s 756 mmHg 81%
    08:00 +16°C° 0 mm 3 m/s 756 mmHg 77%
    09:00 +17°C° 0 mm 3 m/s 756 mmHg 73%
    10:00 +18°C° 0 mm 3 m/s 756 mmHg 68%
    11:00 +20°C° 0 mm 3 m/s 757 mmHg 63%
    12:00 +21°C° 0 mm 3 m/s 757 mmHg 58%
    13:00 +21°C° 0.1 mm 3 m/s 756 mmHg 58%
    14:00 +22°C° 0.1 mm 3 m/s 756 mmHg 57%
    15:00 +22°C° 0.1 mm 3 m/s 756 mmHg 56%
    16:00 +22°C° 0 mm 3 m/s 756 mmHg 59%
    17:00 +22°C° 0 mm 3 m/s 756 mmHg 61%
    18:00 +21°C° 0 mm 3 m/s 756 mmHg 63%
    19:00 +20°C° 0 mm 2 m/s 756 mmHg 67%
    20:00 +20°C° 0 mm 1 m/s 756 mmHg 71%
    21:00 +19°C° 0 mm 1 m/s 756 mmHg 75%
    22:00 +18°C° 0 mm 1 m/s 756 mmHg 77%
    23:00 +18°C° 0 mm 1 m/s 756 mmHg 79%

    Mâine, 17 Iunie, Luni

    Timp Temperatura Precipitaţii Vânt Presiune Umiditate
    00:00 +16°C° 0 mm 1 m/s 756 mmHg 80%
    01:00 +16°C° 0 mm 1 m/s 756 mmHg 81%
    02:00 +14°C° 0 mm 0 m/s 756 mmHg 82%
    03:00 +14°C° 0 mm 0 m/s 755 mmHg 82%
    04:00 +15°C° 0 mm 0 m/s 755 mmHg 81%
    05:00 +15°C° 0 mm 0 m/s 755 mmHg 79%
    06:00 +16°C° 0 mm 0 m/s 756 mmHg 77%
    07:00 +18°C° 0 mm 0 m/s 756 mmHg 70%
    08:00 +20°C° 0 mm 0 m/s 756 mmHg 63%
    09:00 +21°C° 0 mm 0 m/s 756 mmHg 56%
    10:00 +23°C° 0 mm 0 m/s 755 mmHg 51%
    11:00 +24°C° 0 mm 0 m/s 755 mmHg 46%
    12:00 +26°C° 0 mm 0 m/s 755 mmHg 41%
    13:00 +28°C° 0 mm 1 m/s 755 mmHg 41%
    14:00 +28°C° 0 mm 1 m/s 754 mmHg 40%
    15:00 +28°C° 0 mm 1 m/s 754 mmHg 40%
    16:00 +27°C° 0 mm 1 m/s 754 mmHg 45%
    17:00 +26°C° 0 mm 1 m/s 753 mmHg 50%
    18:00 +25°C° 0 mm 1 m/s 753 mmHg 55%
    19:00 +24°C° 0 mm 1 m/s 753 mmHg 60%
    20:00 +23°C° 0 mm 1 m/s 754 mmHg 64%
    21:00 +21°C° 0 mm 1 m/s 754 mmHg 68%
    22:00 +21°C° 0 mm 1 m/s 754 mmHg 72%
    23:00 +19°C° 0 mm 2 m/s 753 mmHg 75%

    Poimâine, 18 Iunie, Marţi

    Timp Temperatura Precipitaţii Vânt Presiune Umiditate
    00:00 +18°C° 0 mm 2 m/s 753 mmHg 79%
    01:00 +18°C° 0 mm 2 m/s 753 mmHg 80%
    02:00 +17°C° 0 mm 2 m/s 753 mmHg 81%
    03:00 +17°C° 0 mm 2 m/s 752 mmHg 83%
    04:00 +17°C° 0 mm 2 m/s 752 mmHg 81%
    05:00 +18°C° 0 mm 2 m/s 752 mmHg 80%
    06:00 +18°C° 0 mm 2 m/s 752 mmHg 78%
    07:00 +20°C° 0 mm 2 m/s 752 mmHg 73%
    08:00 +21°C° 0 mm 2 m/s 752 mmHg 67%
    09:00 +24°C° 0 mm 2 m/s 752 mmHg 61%
    10:00 +25°C° 0 mm 2 m/s 752 mmHg 55%
    11:00 +27°C° 0 mm 2 m/s 752 mmHg 49%
    12:00 +28°C° 0 mm 2 m/s 751 mmHg 43%
    13:00 +28°C° 0 mm 2 m/s 751 mmHg 44%
    14:00 +28°C° 0 mm 2 m/s 751 mmHg 44%
    15:00 +29°C° 0 mm 3 m/s 750 mmHg 45%
    16:00 +28°C° 0 mm 2 m/s 750 mmHg 48%
    17:00 +28°C° 0 mm 2 m/s 750 mmHg 51%
    18:00 +27°C° 0 mm 2 m/s 750 mmHg 55%
    19:00 +26°C° 0 mm 2 m/s 750 mmHg 58%
    20:00 +25°C° 0 mm 1 m/s 750 mmHg 61%
    21:00 +23°C° 0 mm 1 m/s 750 mmHg 64%
    22:00 +23°C° 0 mm 1 m/s 749 mmHg 66%
    23:00 +21°C° 0 mm 2 m/s 749 mmHg 68%

    19 Iunie, Miercuri

    Timp Temperatura Precipitaţii Vânt Presiune Umiditate
    00:00 +21°C° 0 mm 2 m/s 749 mmHg 70%
    01:00 +20°C° 0 mm 2 m/s 748 mmHg 73%
    02:00 +20°C° 0 mm 2 m/s 748 mmHg 76%
    03:00 +19°C° 0 mm 2 m/s 748 mmHg 79%
    04:00 +20°C° 0.1 mm 2 m/s 747 mmHg 79%
    05:00 +20°C° 0.1 mm 2 m/s 747 mmHg 79%
    06:00 +20°C° 0.1 mm 2 m/s 747 mmHg 79%
    07:00 +23°C° 0 mm 2 m/s 747 mmHg 73%
    08:00 +25°C° 0 mm 2 m/s 747 mmHg 66%
    09:00 +27°C° 0 mm 2 m/s 747 mmHg 60%
    10:00 +28°C° 0 mm 2 m/s 747 mmHg 55%
    11:00 +29°C° 0 mm 3 m/s 747 mmHg 50%
    12:00 +30°C° 0 mm 3 m/s 747 mmHg 46%
    13:00 +30°C° 0.3 mm 4 m/s 747 mmHg 48%
    14:00 +30°C° 0.3 mm 5 m/s 746 mmHg 50%
    15:00 +30°C° 0.3 mm 6 m/s 746 mmHg 52%
    16:00 +28°C° 0.3 mm 6 m/s 746 mmHg 56%
    17:00 +27°C° 0.3 mm 5 m/s 747 mmHg 61%
    18:00 +25°C° 0.3 mm 5 m/s 747 mmHg 65%
    19:00 +23°C° 0.1 mm 5 m/s 747 mmHg 68%
    20:00 +22°C° 0.1 mm 5 m/s 748 mmHg 72%
    21:00 +20°C° 0.1 mm 4 m/s 749 mmHg 75%
    22:00 +19°C° 0 mm 4 m/s 749 mmHg 77%
    23:00 +19°C° 0 mm 4 m/s 749 mmHg 78%

    20 Iunie, Joi

    Timp Temperatura Precipitaţii Vânt Presiune Umiditate
    00:00 +18°C° 0 mm 4 m/s 749 mmHg 80%
    01:00 +17°C° 0 mm 4 m/s 749 mmHg 82%
    02:00 +17°C° 0 mm 3 m/s 749 mmHg 83%
    03:00 +16°C° 0 mm 3 m/s 749 mmHg 84%
    04:00 +16°C° 0 mm 3 m/s 750 mmHg 84%
    05:00 +17°C° 0 mm 3 m/s 750 mmHg 84%
    06:00 +17°C° 0 mm 3 m/s 750 mmHg 83%
    07:00 +17°C° 0 mm 3 m/s 750 mmHg 81%
    08:00 +18°C° 0 mm 3 m/s 751 mmHg 79%
    09:00 +19°C° 0 mm 3 m/s 751 mmHg 76%
    10:00 +20°C° 0.3 mm 3 m/s 751 mmHg 72%
    11:00 +21°C° 0.3 mm 3 m/s 751 mmHg 68%
    12:00 +22°C° 0.3 mm 3 m/s 751 mmHg 64%
    13:00 +22°C° 0.4 mm 3 m/s 751 mmHg 64%
    14:00 +22°C° 0.4 mm 3 m/s 751 mmHg 64%
    15:00 +23°C° 0.4 mm 2 m/s 751 mmHg 64%
    16:00 +21°C° 0.5 mm 2 m/s 751 mmHg 65%
    17:00 +21°C° 0.5 mm 2 m/s 751 mmHg 67%
    18:00 +20°C° 0.5 mm 2 m/s 751 mmHg 68%
    19:00 +20°C° 0.1 mm 2 m/s 751 mmHg 70%
    20:00 +19°C° 0.1 mm 2 m/s 752 mmHg 71%
    21:00 +18°C° 0.1 mm 2 m/s 752 mmHg 72%
    22:00 +17°C° 0 mm 2 m/s 752 mmHg 73%
    23:00 +17°C° 0 mm 2 m/s 752 mmHg 75%

    21 Iunie, Vineri

    Timp Temperatura Precipitaţii Vânt Presiune Umiditate
    00:00 +16°C° 0 mm 3 m/s 752 mmHg 76%
    01:00 +16°C° 0 mm 3 m/s 752 mmHg 74%
    02:00 +14°C° 0 mm 3 m/s 752 mmHg 72%
    03:00 +14°C° 0 mm 3 m/s 752 mmHg 70%
    04:00 +14°C° 0 mm 3 m/s 752 mmHg 71%
    05:00 +15°C° 0 mm 2 m/s 753 mmHg 73%
    06:00 +15°C° 0 mm 2 m/s 753 mmHg 74%
    07:00 +16°C° 0 mm 2 m/s 753 mmHg 67%
    08:00 +17°C° 0 mm 2 m/s 753 mmHg 60%
    09:00 +19°C° 0 mm 2 m/s 754 mmHg 53%
    10:00 +20°C° 0 mm 2 m/s 754 mmHg 50%
    11:00 +21°C° 0 mm 3 m/s 754 mmHg 48%
    12:00 +21°C° 0 mm 3 m/s 754 mmHg 45%
    13:00 +21°C° 0 mm 3 m/s 754 mmHg 45%
    14:00 +21°C° 0 mm 3 m/s 754 mmHg 45%
    15:00 +21°C° 0 mm 3 m/s 754 mmHg 45%
    16:00 +21°C° 0 mm 3 m/s 754 mmHg 48%
    17:00 +20°C° 0 mm 3 m/s 754 mmHg 51%
    18:00 +20°C° 0 mm 3 m/s 754 mmHg 55%
    19:00 +19°C° 0 mm 3 m/s 755 mmHg 60%
    20:00 +17°C° 0 mm 3 m/s 755 mmHg 65%
    21:00 +16°C° 0 mm 2 m/s 755 mmHg 70%
    22:00 +16°C° 0 mm 2 m/s 755 mmHg 71%
    23:00 +15°C° 0 mm 2 m/s 755 mmHg 72%
    Arată mai mult